This demonstration page uses our WeatherBlox Daily Observations layout. Learn more.

Hourly Observations for September 5, 2020

Temp ( °F °C ) Dew Point ( °F °C ) Humidity (%) Winds ( mph kmh ) Pressure ( in mb ) Visibility ( mi km ) Precip ( " mm )
12:15 am 00:15 Clear 64 18 59 15 83 83 Calm 30.11 1020 10 16.0934 0 0
12:35 am 00:35 Clear 63 17 59 15 88 88 Calm 30.12 1020 10 16.0934 0 0
12:55 am 00:55 Clear 64 18 59 15 83 83 WNW 3 6 30.12 1020 10 16.0934 0 0
1:15 am 01:15 Clear 64 18 59 15 83 83 NNE 3 6 30.13 1020 10 16.0934 0 0
1:35 am 01:35 Clear 64 18 57 14 78 78 NNE 3 6 30.13 1020 10 16.0934 0 0
1:55 am 01:55 Clear 64 18 57 14 78 78 NE 3 6 30.14 1021 10 16.0934 0 0
2:15 am 02:15 Clear 66 19 55 13 68 68 NNW 8 13 30.14 1021 10 16.0934 0 0
2:35 am 02:35 Clear 64 18 55 13 73 73 NNW 9 15 30.15 1021 10 16.0934 0 0
2:55 am 02:55 Clear 64 18 55 13 73 73 N 8 13 30.16 1021 10 16.0934 0 0
3:15 am 03:15 Clear 63 17 55 13 77 77 NNW 9 15 30.17 1022 10 16.0934 0 0
3:35 am 03:35 Clear 63 17 55 13 77 77 NNW 10 17 30.18 1022 10 16.0934 0 0
3:55 am 03:55 Clear 63 17 55 13 77 77 NNW 9 15 30.19 1022 10 16.0934 0 0
4:15 am 04:15 Clear 63 17 54 12 73 73 NNW 7 11 30.19 1022 10 16.0934 0 0
4:35 am 04:35 Clear 63 17 54 12 73 73 N 5 7 30.2 1023 10 16.0934 0 0
4:55 am 04:55 Clear 63 17 54 12 73 73 N 8 13 30.2 1023 10 16.0934 0 0
5:15 am 05:15 Clear 63 17 54 12 73 73 NNW 6 9 30.21 1023 10 16.0934 0 0
5:35 am 05:35 Clear 61 16 54 12 77 77 N 5 7 30.21 1023 10 16.0934 0 0
5:55 am 05:55 Clear 61 16 54 12 77 77 NNW 7 11 30.22 1023 10 16.0934 0 0
6:15 am 06:15 Clear 59 15 54 12 82 82 NNW 6 9 30.23 1024 10 16.0934 0 0
6:35 am 06:35 Clear 59 15 54 12 82 82 N 6 9 30.23 1024 10 16.0934 0 0
6:55 am 06:55 Sunny 59 15 54 12 82 82 NNW 6 9 30.24 1024 10 16.0934 0 0
7:15 am 07:15 Sunny 59 15 54 12 82 82 NNW 6 9 30.25 1024 10 16.0934 0 0
7:35 am 07:35 Sunny 61 16 54 12 77 77 NNW 8 13 30.25 1024 10 16.0934 0 0
7:55 am 07:55 Partly Cloudy 63 17 55 13 77 77 NNW 5 7 30.26 1025 10 16.0934 0 0
8:15 am 08:15 Partly Cloudy 64 18 55 13 73 73 Calm 30.25 1025 10 16.0934 0 0
8:35 am 08:35 Sunny 64 18 55 13 73 73 Calm 30.26 1025 10 16.0934 0 0
8:55 am 08:55 Sunny 66 19 54 12 64 64 N 5 7 30.26 1025 10 16.0934 0 0
9:15 am 09:15 Sunny 68 20 55 13 64 64 Calm 30.27 1025 10 16.0934 0 0
9:35 am 09:35 Sunny 70 21 55 13 60 60 Calm 30.27 1025 10 16.0934 0 0
9:55 am 09:55 Sunny 70 21 54 12 57 57 Calm 30.27 1025 10 16.0934 0 0
10:15 am 10:15 Sunny 70 21 54 12 57 57 Calm 30.28 1025 10 16.0934 0 0
10:35 am 10:35 Sunny 72 22 54 12 53 53 Calm 30.28 1025 10 16.0934 0 0
10:55 am 10:55 Sunny 72 22 54 12 53 53 Calm 30.28 1025 10 16.0934 0 0
11:15 am 11:15 Sunny 72 22 54 12 53 53 Calm 30.28 1025 10 16.0934 0 0
11:35 am 11:35 Sunny 73 23 54 12 50 50 Calm 30.27 1025 10 16.0934 0 0
11:55 am 11:55 Sunny 73 23 52 11 47 47 Calm 30.27 1025 10 16.0934 0 0
12:15 pm 12:15 Sunny 73 23 52 11 47 47 Calm 30.26 1025 10 16.0934 0 0
12:35 pm 12:35 Sunny 75 24 55 13 50 50 E 6 9 30.25 1024 10 16.0934 0 0
12:55 pm 12:55 Sunny 75 24 54 12 47 47 N 3 6 30.25 1024 10 16.0934 0 0
1:15 pm 13:15 Sunny 75 24 52 11 44 44 Calm 30.25 1024 10 16.0934 0 0
1:35 pm 13:35 Sunny 75 24 52 11 44 44 NE 5 7 30.25 1024 10 16.0934 0 0
1:55 pm 13:55 Sunny 77 25 54 12 44 44 N 5 7 30.24 1024 10 16.0934 0 0
2:15 pm 14:15 Sunny 77 25 54 12 44 44 NW 7 11 30.23 1024 10 16.0934 0 0
2:35 pm 14:35 Sunny 79 26 52 11 39 39 WNW 5 7 30.23 1024 10 16.0934 0 0
2:55 pm 14:55 Sunny 77 25 52 11 42 42 N 6 9 30.22 1024 10 16.0934 0 0
3:15 pm 15:15 Sunny 79 26 54 12 42 42 NW 3 6 30.22 1023 10 16.0934 0 0
3:35 pm 15:35 Partly Cloudy 79 26 54 12 42 42 W 7 11 30.21 1023 10 16.0934 0 0
3:55 pm 15:55 Sunny 79 26 54 12 42 42 WNW 8 13 30.21 1023 10 16.0934 0 0
4:15 pm 16:15 Sunny 79 26 54 12 42 42 NNW 3 6 30.2 1023 10 16.0934 0 0
4:35 pm 16:35 Sunny 79 26 54 12 42 42 W 6 9 30.2 1023 10 16.0934 0 0
4:55 pm 16:55 Sunny 79 26 54 12 42 42 Calm 30.2 1023 10 16.0934 0 0
5:15 pm 17:15 Sunny 79 26 54 12 42 42 Calm 30.2 1023 10 16.0934 0 0
5:35 pm 17:35 Sunny 79 26 54 12 42 42 W 5 7 30.2 1023 10 16.0934 0 0
5:55 pm 17:55 Sunny 79 26 54 12 42 42 Calm 30.2 1023 10 16.0934 0 0
6:15 pm 18:15 Sunny 79 26 55 13 45 45 Calm 30.2 1023 10 16.0934 0 0
6:35 pm 18:35 Sunny 79 26 55 13 45 45 Calm 30.2 1023 10 16.0934 0 0
6:55 pm 18:55 Sunny 77 25 55 13 47 47 Calm 30.2 1023 10 16.0934 0 0
7:15 pm 19:15 Sunny 75 24 57 14 54 54 S 5 7 30.21 1023 10 16.0934 0 0
7:35 pm 19:35 Clear 73 23 59 15 61 61 S 5 7 30.21 1023 10 16.0934 0 0
7:55 pm 19:55 Clear 70 21 61 16 73 73 S 5 7 30.21 1023 10 16.0934 0 0
8:15 pm 20:15 Clear 70 21 61 16 73 73 Calm 30.21 1023 10 16.0934 0 0
8:35 pm 20:35 Clear 68 20 63 17 83 83 SW 5 7 30.22 1023 10 16.0934 0 0
8:55 pm 20:55 Clear 66 19 61 16 83 83 WSW 5 7 30.23 1024 10 16.0934 0 0
9:15 pm 21:15 Clear 66 19 61 16 83 83 WSW 3 6 30.23 1024 10 16.0934 0 0
9:35 pm 21:35 Clear 66 19 61 16 83 83 SW 3 6 30.23 1024 10 16.0934 0 0
9:55 pm 21:55 Clear 64 18 61 16 88 88 Calm 30.23 1024 10 16.0934 0 0
10:15 pm 22:15 Clear 64 18 61 16 88 88 WSW 3 6 30.23 1024 10 16.0934 0 0
10:35 pm 22:35 Clear 64 18 59 15 83 83 WSW 5 7 30.23 1024 10 16.0934 0 0
10:55 pm 22:55 Clear 64 18 59 15 83 83 W 6 9 30.23 1024 10 16.0934 0 0
11:15 pm 23:15 Clear 64 18 59 15 83 83 WSW 5 7 30.23 1024 10 16.0934 0 0
11:35 pm 23:35 Clear 64 18 59 15 83 83 WSW 5 7 30.22 1024 10 16.0934 0 0
11:55 pm 23:55 Clear 64 18 59 15 83 83 WSW 6 9 30.22 1024 10 16.0934 0 0

Powered by AerisWeather